DMSP 5D-2 F13 DEB, 40405

Orbit data source: Space-Track

DMSP 5D-2 F13 DEB, 40405 is space debris in SSO originally from a launch on Fri, 24 Mar 1995 UTC launched from the Air Force Western Test Range (AFWTR). Debris objects in space refer to the collection of defunct objects orbiting the Earth. Examples of debris include non-operational satellites, rocket bodies, and fragments generated from explosions, collisions, or faulty payload assembly.

Loading next visibility...
Identifier
40405, 1995-015S
Orbit
SSO
Country
Flag of USUS
Related business
Manufacturer
Unknown
Mission
Spacecraft
Bus & Motor
Unknown
Mass
Unknown
Launch date (UTC)
1995-03-24 (31 years ago)
Launch vehicle
Unknown
Launch site
Air Force Western Test Range (AFWTR)
Object type
Payload
Rocket body
Debris
Shape & HBR
Unknown shape, 0.1 m
Radar Cross Section
Medium (>0.1 m² and <1 m²)

Expand to show TLE details & history
Last TLE update: 1 day ago

TLE from 1 day ago
0 DMSP 5D-2 F13 DEB
1 40405U 95015S   26171.33122791  .00001006  00000-0  46048-3 0  9990
2 40405  98.8673 194.8597 0120086 293.7565  65.1054 14.19957190583411
Epoch: 2026-06-20T07:56Z
TLE epoch observation values (Epoch: 2026-06-20T07:56:58.091Z)
Latitude
-0.00002°
Longitude
167.07027°
Altitude
792.847 km
Speed
7.476 km/s
True Right ascension
12h 59m 26s
True Declination
0° 00' 00"
Sunlit
Object was in daylight at epoch
Visualization orbit readout
Latitude
Unknown
Longitude
Unknown
Altitude
Unknown
Speed
Unknown
Apparent Right ascension
Unknown
Apparent Declination
Unknown
Sunlit
N/A
Visualization observer readout
Local Sidereal Time
04:51:12
Azimuth
Unknown
Elevation
Unknown
Doppler factor
Unknown
Orbital elements
Apogee altitude
909.135 km
Perigee altitude
736.192 km
Semi-major axis
7,200.8 km
Eccentricity
0.01201
Inclination
98.8673°
RAAN
194.8597°
Arg. of periapsis
293.7565°
True anomaly
66.36146°
Mean anomaly
65.1054°
Eccentric anomaly
65.73265°
Mean motion
3.55199 °/min
Orbital period
101.35 mins
BSTAR
0.00046048
Loading maneuver chart data...
Computing Atmospheric mass density...

Documentation

Showing up to 5 results
|